Location: Newark
(46.2167°N, 5.8664°E)
Time: 03:46:38
(UTC+00:00)

Envisat - Visible Passes

Search period start: 20 September 2019 00:00
Search period end: 30 September 2019 00:00
Orbit: 764 x 766 km, 98.1° (Epoch: 19 September)

Date Brightness Start Highest point End Pass type
(mag) Time Alt. Az. Time Alt. Az. Time Alt. Az.
20 Sep 6.3 19:28:53 10° W 19:29:58 11° W 19:31:03 10° WNW visible
21 Sep 5.6 18:48:43 10° SW 18:52:43 23° W 18:56:46 10° NW visible
22 Sep 4.2 18:10:48 10° S 18:15:42 48° W 18:20:38 10° NNW visible
23 Sep 6.1 19:16:01 10° WSW 19:18:32 14° W 19:21:04 10° WNW visible
24 Sep 5.2 18:37:01 10° SSW 18:41:22 29° W 18:45:45 10° NW visible
25 Sep 3.7 17:59:23 10° S 18:04:24 60° W 18:09:27 10° NNW visible
26 Sep 5.9 19:03:51 10° SW 19:07:08 17° W 19:10:27 10° NW visible
27 Sep 4.8 18:25:24 10° SSW 18:30:02 35° W 18:34:42 10° NNW visible
28 Sep 3.3 17:48:03 10° S 17:53:07 75° WSW 17:58:14 10° NNW visible
29 Sep 5.6 18:51:55 10° SW 18:55:45 21° W 18:59:37 10° NW visible
